Regional Weather Roundup
Issued by NWS

Home | Current Version | Previous Version | Text Only | Print | Product List | Glossary On
Versions: 1 2 3 4 5 6 7 8 9 10 11 12 13 14 15 16 17 18 19 20 21 22 23 24 25 26 27 28 29 30 31 32 33 34 35 36 37 38 39 40 41 42 43 44 45 46 47 48 49 50
235
ASUS45 KREV 220610
RWRNV
NEVADA REGIONAL WEATHER ROUNDUP
NATIONAL WEATHER SERVICE RENO NV
1100 PM PDT SAT OCT 21 2017

NOTE: "FAIR" INDICATES FEW OR NO CLOUDS BELOW 12,000 FEET WITH NO
SIGNIFICANT WEATHER AND/OR OBSTRUCTIONS TO VISIBILITY.

NVZ001-003-004-220700-
WESTERN NEVADA

CITY           SKY/WX    TMP DP  RH WIND       PRES   REMARKS
RENO           CLEAR     48  39  71 CALM      30.33R
6HR MIN TEMP:  47; 6HR MAX TEMP:  62;

CARSON CITY    FAIR      45  37  76 N5        30.34S
MINDEN         FAIR      37  32  81 CALM      30.34S
SLIDE MTN        N/A     37  23  56 NW2         N/A
FALLON         CLEAR     45  25  45 VRB5      30.31R
6HR MIN TEMP:  45; 6HR MAX TEMP:  63;

LOVELOCK       FLURRIES  34  22  61 SW3       30.31S
6HR MIN TEMP:  33; 6HR MAX TEMP:  60; 6HR PCP: TRACE;

HAWTHORNE      CLEAR     48  28  46 S7        30.32S
$$

NVZ002-CAZ072-073-220700-
NORTHERN AND CENTRAL SIERRA

CITY           SKY/WX    TMP DP  RH WIND       PRES   REMARKS
S. LAKE TAHOE  CLEAR     34  32  92 S6        30.39R
6HR MIN TEMP:  34; 6HR MAX TEMP:  53;

TRUCKEE        CLEAR     32  32 100 CALM      30.39S
SQUAW VLY 8000 NOT AVBL
SUSANVILLE     CLEAR     41  37  87 CALM      30.33R
BLUE CANYON    CLEAR     48  36  63 CALM      30.37S
MAMMOTH LAKES  FAIR      37  27  69 N3        30.44R
6HR MIN TEMP:  36; 6HR MAX TEMP:  61;

BRIDGEPORT     FAIR      35  28  75 CALM      30.41R
$$

NVZ030-031-036-220700-
NORTHERN NEVADA

CITY           SKY/WX    TMP DP  RH WIND       PRES   REMARKS
ELKO           PTCLDY    40  28  62 CALM      30.33R
6HR MIN TEMP:  39; 6HR MAX TEMP:  51;

WINNEMUCCA     PTCLDY    48  31  51 S13       30.29F
6HR MIN TEMP:  47; 6HR MAX TEMP:  52; 6HR PCP: TRACE;

WENDOVER       CLOUDY    45  21  38 W3        30.32R
$$

NVZ035-037-220700-
CENTRAL NEVADA

CITY           SKY/WX    TMP DP  RH WIND       PRES   REMARKS
ELY            PTCLDY    42  20  41 CALM      30.38R
6HR MIN TEMP:  39; 6HR MAX TEMP:  54;

EUREKA           N/A     41  28  60 S7        30.36S
6HR MIN TEMP:  40; 6HR MAX TEMP:  55;

$$

NVZ013-014-220700-
SOUTH CENTRAL NEVADA

CITY           SKY/WX    TMP DP  RH WIND       PRES   REMARKS
TONOPAH        CLEAR     48  28  46 N13       30.38R
6HR MIN TEMP:  47; 6HR MAX TEMP:  61;

$$

NVZ017-020-022-220700-
SOUTHERN NEVADA

CITY           SKY/WX    TMP DP  RH WIND       PRES   REMARKS
LAS VEGAS      CLEAR     62  16  16 W5        30.24R
6HR MIN TEMP:  62; 6HR MAX TEMP:  72;

N. LAS VEGAS   CLEAR     60  19  20 NW7       30.24R
6HR MIN TEMP:  59; 6HR MAX TEMP:  72;

NELLIS AFB     CLEAR     58  12  16 E3        30.24R
6HR MIN TEMP:  58; 6HR MAX TEMP:  72;

HENDERSON      CLEAR     56  19  23 S7        30.27R
6HR MIN TEMP:  55; 6HR MAX TEMP:  70;

MERCURY        CLEAR     55  14  19 E3        30.27R
6HR MIN TEMP:  52; 6HR MAX TEMP:  70;

$$




USA.gov is the U.S. government's official web portal to all federal, state and local government web resources and services.